SVA120 EGLL-OEJN

Flight info

Callsign SVA120
Flight time N/A
Altitude 35000
Route DET L6 DVR UL9 KONAN UL607 KOK DCT BITBU DCT BABEG DCT KONIN DCT ERKIR DCT DARZA/N0476F370 DCT GLOMY DCT PETAK DCT DIMIS DCT IPTES UL604 SALUN N705 BOPIX N710 TAKRI P751 LXR M999 MUVOL
Aircraft B77W/H-SDE1E2E3FGHIJ2J3J4J5M1RWXY/LB1D1

Departure

Time 2026-05-01 13:50
Airport London Heathrow Airport (EGLL)

Arrival

Time N/A
Airport King Abdulaziz International Airport (OEJN)
Time Latitude Longitude Altitude Speed Heading
2026-05-01 13:14 51.46025 -0.44884 91 ft 0 kts 130°
2026-05-01 13:34 51.46027 -0.44887 95 ft 1 kts 130°
2026-05-01 13:34 51.46051 -0.44932 94 ft 2 kts 130°
2026-05-01 13:35 51.46069 -0.44974 93 ft 3 kts 99°
2026-05-01 13:35 51.46070 -0.44994 93 ft 3 kts 66°
2026-05-01 13:35 51.46046 -0.45033 94 ft 3 kts 37°
2026-05-01 13:36 51.46037 -0.45044 92 ft 0 kts 40°
2026-05-01 13:39 51.46042 -0.45038 95 ft 3 kts 40°
2026-05-01 13:39 51.46068 -0.45003 94 ft 6 kts 40°
2026-05-01 13:40 51.46101 -0.44957 95 ft 7 kts 41°
2026-05-01 13:40 51.46149 -0.44890 95 ft 9 kts 41°
2026-05-01 13:40 51.46197 -0.44819 95 ft 9 kts 42°
2026-05-01 13:40 51.46245 -0.44749 95 ft 9 kts 42°
2026-05-01 13:41 51.46286 -0.44734 94 ft 9 kts 346°
2026-05-01 13:41 51.46317 -0.44820 95 ft 10 kts 277°
2026-05-01 13:41 51.46320 -0.44936 93 ft 11 kts 271°
2026-05-01 13:41 51.46319 -0.45063 94 ft 14 kts 269°
2026-05-01 13:42 51.46318 -0.45232 94 ft 15 kts 269°
2026-05-01 13:42 51.46317 -0.45401 94 ft 15 kts 269°
2026-05-01 13:42 51.46318 -0.45570 94 ft 15 kts 273°
2026-05-01 13:42 51.46324 -0.45742 92 ft 17 kts 272°
2026-05-01 13:43 51.46324 -0.45938 91 ft 18 kts 269°
2026-05-01 13:43 51.46322 -0.46134 91 ft 18 kts 269°
2026-05-01 13:43 51.46321 -0.46329 92 ft 18 kts 269°
2026-05-01 13:43 51.46322 -0.46522 91 ft 18 kts 270°
2026-05-01 13:44 51.46321 -0.46718 92 ft 18 kts 269°
2026-05-01 13:44 51.46323 -0.46913 91 ft 18 kts 270°
2026-05-01 13:44 51.46322 -0.47108 91 ft 18 kts 269°
2026-05-01 13:44 51.46322 -0.47304 91 ft 18 kts 275°
2026-05-01 13:45 51.46341 -0.47496 94 ft 18 kts 271°
2026-05-01 13:45 51.46320 -0.47687 93 ft 18 kts 245°
2026-05-01 13:45 51.46262 -0.47859 94 ft 18 kts 251°
2026-05-01 13:45 51.46252 -0.48063 91 ft 15 kts 270°
2026-05-01 13:46 51.46252 -0.48232 87 ft 17 kts 270°
2026-05-01 13:46 51.46251 -0.48424 85 ft 17 kts 270°
2026-05-01 13:46 51.46254 -0.48577 89 ft 9 kts 282°
2026-05-01 13:46 51.46283 -0.48673 91 ft 10 kts 308°
2026-05-01 13:47 51.46286 -0.48679 91 ft 0 kts 310°
2026-05-01 13:48 51.46287 -0.48681 91 ft 3 kts 312°
2026-05-01 13:48 51.46360 -0.48741 92 ft 11 kts 345°
2026-05-01 13:48 51.46437 -0.48752 94 ft 11 kts
2026-05-01 13:48 51.46475 -0.48669 96 ft 7 kts 84°
2026-05-01 13:49 51.46476 -0.48642 95 ft 15 kts 86°
2026-05-01 13:49 51.46479 -0.48032 88 ft 94 kts 90°
2026-05-01 13:49 51.46484 -0.46611 95 ft 158 kts 90°
2026-05-01 13:49 51.46465 -0.44653 364 ft 180 kts 97°
2026-05-01 13:50 51.46343 -0.42656 1073 ft 178 kts 100°
2026-05-01 13:50 51.46161 -0.40643 1640 ft 183 kts 117°
2026-05-01 13:50 51.45354 -0.39093 1998 ft 189 kts 144°
2026-05-01 13:50 51.44527 -0.37322 2216 ft 218 kts 111°
2026-05-01 13:51 51.44110 -0.34803 2394 ft 249 kts 110°
2026-05-01 13:51 51.43568 -0.32113 3155 ft 255 kts 112°
2026-05-01 13:51 51.42989 -0.29411 4071 ft 256 kts 113°
2026-05-01 13:51 51.42465 -0.26639 4815 ft 264 kts 106°
2026-05-01 13:52 51.42084 -0.23719 5610 ft 269 kts 104°
2026-05-01 13:52 51.41710 -0.20771 6444 ft 272 kts 105°
2026-05-01 13:52 51.41317 -0.17795 7242 ft 275 kts 106°
2026-05-01 13:52 51.40911 -0.14782 8021 ft 278 kts 106°
2026-05-01 13:53 51.40495 -0.11740 8799 ft 281 kts 106°
2026-05-01 13:53 51.39646 -0.05573 10313 ft 286 kts 106°
2026-05-01 13:53 51.39210 -0.02436 10733 ft 303 kts 106°
2026-05-01 13:54 51.38731 0.00991 10915 ft 328 kts 106°
2026-05-01 13:54 51.38231 0.04688 11083 ft 351 kts 103°
2026-05-01 13:54 51.37958 0.08684 11549 ft 367 kts 97°
2026-05-01 13:54 51.37803 0.12823 12346 ft 375 kts 96°
2026-05-01 13:55 51.37679 0.17029 13301 ft 379 kts 96°
2026-05-01 13:55 51.37569 0.21210 14216 ft 383 kts 96°
2026-05-01 13:55 51.37465 0.25503 15059 ft 388 kts 96°
2026-05-01 13:55 51.37363 0.29857 15863 ft 393 kts 96°
2026-05-01 13:56 51.37264 0.34261 16678 ft 398 kts 96°
2026-05-01 13:56 51.37166 0.38717 17434 ft 403 kts 96°
2026-05-01 13:56 51.37068 0.43230 18229 ft 408 kts 96°
2026-05-01 13:56 51.36970 0.47797 18945 ft 413 kts 96°
2026-05-01 13:57 51.36872 0.52413 19678 ft 417 kts 96°
2026-05-01 13:57 51.36774 0.57055 20444 ft 419 kts 96°
2026-05-01 13:57 51.36675 0.61738 21244 ft 422 kts 96°
2026-05-01 13:57 51.36574 0.66468 21953 ft 426 kts 96°
2026-05-01 13:58 51.36468 0.71224 22642 ft 430 kts 96°
2026-05-01 13:58 51.36358 0.76036 23323 ft 434 kts 96°
2026-05-01 13:58 51.36246 0.80834 23945 ft 438 kts 96°
2026-05-01 13:58 51.36130 0.85724 24497 ft 441 kts 97°
2026-05-01 13:59 51.35819 0.90603 25001 ft 441 kts 103°
2026-05-01 13:59 51.35267 0.95459 25542 ft 444 kts 105°
2026-05-01 13:59 51.34637 1.00292 26052 ft 447 kts 106°
2026-05-01 13:59 51.33973 1.05180 26578 ft 450 kts 106°
2026-05-01 14:00 51.33298 1.10082 27064 ft 453 kts 106°
2026-05-01 14:00 51.32608 1.15035 27508 ft 457 kts 106°
2026-05-01 14:00 51.31905 1.20025 27948 ft 461 kts 106°
2026-05-01 14:00 51.31245 1.25067 28389 ft 466 kts 102°
2026-05-01 14:01 51.30866 1.30256 28832 ft 471 kts 98°
2026-05-01 14:01 51.30630 1.35432 29259 ft 474 kts 97°
2026-05-01 14:01 51.30433 1.40781 29661 ft 478 kts 97°
2026-05-01 14:01 51.30252 1.46030 30026 ft 480 kts 96°
2026-05-01 14:02 51.30072 1.51365 30493 ft 479 kts 96°
2026-05-01 14:02 51.29897 1.56664 30993 ft 477 kts 96°
2026-05-01 14:02 51.29725 1.61947 31472 ft 475 kts 96°
2026-05-01 14:02 51.29427 1.67191 31870 ft 472 kts 102°
2026-05-01 14:03 51.28741 1.72314 32266 ft 469 kts 109°
2026-05-01 14:03 51.27748 1.77236 32670 ft 467 kts 111°
2026-05-01 14:03 51.26715 1.82154 33070 ft 466 kts 111°
2026-05-01 14:03 51.25684 1.87064 33464 ft 466 kts 111°
2026-05-01 14:04 51.24664 1.91967 33831 ft 465 kts 111°
2026-05-01 14:04 51.23651 1.96877 34201 ft 465 kts 111°
2026-05-01 14:04 51.22644 2.01791 34497 ft 465 kts 111°
2026-05-01 14:04 51.21982 2.05032 34695 ft 465 kts 111°
2026-05-01 14:05 51.20638 2.11602 35074 ft 465 kts 111°
2026-05-01 14:05 51.19642 2.16455 35127 ft 469 kts 111°
2026-05-01 14:05 51.17605 2.26344 35185 ft 467 kts 111°
2026-05-01 14:06 51.15577 2.36142 35189 ft 463 kts 111°
2026-05-01 14:06 51.13552 2.45867 35197 ft 462 kts 111°
2026-05-01 14:07 51.11526 2.55558 35203 ft 462 kts 111°
2026-05-01 14:08 51.08302 2.70002 35206 ft 462 kts 115°
2026-05-01 14:08 51.05826 2.79376 35208 ft 463 kts 115°
2026-05-01 14:09 51.03307 2.88807 35212 ft 464 kts 115°
2026-05-01 14:09 51.00791 2.98259 35206 ft 465 kts 115°
2026-05-01 14:10 50.98275 3.07721 35198 ft 465 kts 115°
2026-05-01 14:10 50.95764 3.17141 35194 ft 466 kts 115°
2026-05-01 14:11 50.93231 3.26602 35193 ft 465 kts 115°
2026-05-01 14:11 50.89423 3.40748 35195 ft 465 kts 115°
2026-05-01 14:12 50.86876 3.50161 35192 ft 465 kts 115°
2026-05-01 14:12 50.84323 3.59562 35204 ft 464 kts 115°
2026-05-01 14:13 50.82196 3.67358 35203 ft 464 kts 115°
2026-05-01 14:13 50.79221 3.78225 35213 ft 463 kts 115°
2026-05-01 14:14 50.76650 3.87571 35219 ft 464 kts 115°
2026-05-01 14:14 50.74071 3.96916 35215 ft 464 kts 115°
2026-05-01 14:15 50.71482 4.06253 35229 ft 464 kts 115°
2026-05-01 14:15 50.68889 4.15576 35230 ft 465 kts 115°
2026-05-01 14:16 50.66296 4.24857 35237 ft 465 kts 115°
2026-05-01 14:16 50.63682 4.34176 35240 ft 465 kts 115°
2026-05-01 14:17 50.61056 4.43499 35239 ft 466 kts 115°
2026-05-01 14:17 50.58416 4.52835 35239 ft 467 kts 115°
2026-05-01 14:18 50.55767 4.62170 35238 ft 467 kts 115°
2026-05-01 14:18 50.53556 4.69930 35235 ft 467 kts 115°
2026-05-01 14:19 50.50440 4.80828 35241 ft 467 kts 115°
2026-05-01 14:19 50.47785 4.90071 35239 ft 468 kts 115°
2026-05-01 14:20 50.43754 5.04039 35245 ft 468 kts 116°
2026-05-01 14:21 50.41055 5.13345 35241 ft 469 kts 116°
2026-05-01 14:21 50.38344 5.22658 35242 ft 469 kts 116°
2026-05-01 14:22 50.34263 5.36604 35246 ft 469 kts 116°
2026-05-01 14:22 50.31533 5.45895 35242 ft 470 kts 116°
2026-05-01 14:23 50.28794 5.55174 35243 ft 470 kts 116°
2026-05-01 14:23 50.26059 5.64409 35249 ft 470 kts 116°
2026-05-01 14:24 50.23299 5.73691 35255 ft 471 kts 116°
2026-05-01 14:24 50.20527 5.82976 35254 ft 471 kts 116°
2026-05-01 14:25 50.17750 5.92244 35258 ft 472 kts 116°
2026-05-01 14:25 50.14972 6.01480 35260 ft 473 kts 116°
2026-05-01 14:26 50.10760 6.15420 35260 ft 474 kts 116°
2026-05-01 14:27 50.07939 6.24709 35256 ft 475 kts 116°
2026-05-01 14:27 50.05105 6.34007 35268 ft 475 kts 116°
2026-05-01 14:28 50.01319 6.46380 35263 ft 476 kts 116°
2026-05-01 14:28 49.98449 6.55675 35268 ft 477 kts 118°
2026-05-01 14:29 49.95068 6.64531 35269 ft 477 kts 123°
2026-05-01 14:30 49.87983 6.81969 35261 ft 477 kts 123°
2026-05-01 14:31 49.82720 6.95000 35269 ft 477 kts 122°
2026-05-01 14:31 49.79193 7.03722 35286 ft 477 kts 123°
2026-05-01 14:32 49.75657 7.12430 35288 ft 478 kts 123°
2026-05-01 14:32 49.72114 7.21124 35290 ft 477 kts 123°
2026-05-01 14:33 49.68599 7.29723 35284 ft 476 kts 123°
2026-05-01 14:33 49.65049 7.38380 35268 ft 477 kts 123°
2026-05-01 14:34 49.61487 7.47032 35265 ft 477 kts 123°
2026-05-01 14:34 49.57922 7.55667 35274 ft 477 kts 123°
2026-05-01 14:35 49.54374 7.64234 35256 ft 478 kts 123°
2026-05-01 14:35 49.50787 7.72864 35257 ft 478 kts 123°
2026-05-01 14:36 49.47194 7.81481 35267 ft 478 kts 123°
2026-05-01 14:36 49.43590 7.90100 35273 ft 479 kts 123°
2026-05-01 14:37 49.40003 7.98651 35264 ft 479 kts 123°
2026-05-01 14:37 49.36392 8.07228 35285 ft 478 kts 123°
2026-05-01 14:38 49.32772 8.15798 35283 ft 478 kts 123°
2026-05-01 14:38 49.29151 8.24345 35285 ft 478 kts 123°
2026-05-01 14:39 49.25513 8.32904 35289 ft 479 kts 123°
2026-05-01 14:39 49.21890 8.41402 35283 ft 480 kts 123°
2026-05-01 14:40 49.18239 8.49933 35281 ft 480 kts 122°
2026-05-01 14:40 49.14576 8.58470 35281 ft 480 kts 122°
2026-05-01 14:41 49.10907 8.66993 35276 ft 479 kts 122°
2026-05-01 14:41 49.07240 8.75483 35283 ft 479 kts 122°
2026-05-01 14:42 49.03597 8.83892 35277 ft 479 kts 122°
2026-05-01 14:42 48.99920 8.92353 35277 ft 478 kts 122°
2026-05-01 14:43 48.96239 9.00797 35277 ft 479 kts 122°
2026-05-01 14:43 48.92550 9.09229 35275 ft 478 kts 122°
2026-05-01 14:44 48.88859 9.17640 35275 ft 478 kts 122°
2026-05-01 14:44 48.83319 9.30220 35272 ft 477 kts 122°
2026-05-01 14:45 48.77783 9.42734 35279 ft 479 kts 122°